STARLINK-36043

Last updated on Fri Dec 19 2025 00:02:08 GMT+0000 (Coordinated Universal Time)

1 66901U 25283Z 25352.58336806 -.01571435 00000+0 -10516-1 0 9999 2 66901 53.1548 44.3372 0000990 79.1121 92.2396 15.77687616 3369
UTC large
Height (km)
Speed (km/s)
/
Latitude / Longitude
Inclination (degrees)
Orbital Period (minutes)
Azimuth
Elevation
Range (km)
Doppler Factor

Next 0 passes for location: London (51.5072 / 0.1276)

Sorry there are no passes over London.